| time (UTC) | temp F | wind direction | speed MPH | gust MPH | rain 1hr in | rain 24hr in | rain mn in | humidity % | barometer mb |
| 20260506033535 | 66 | 82 | 2.0 | 5.0 | 0.00 | 0.15 | 0.15 | 47 | 1004.2 |
| 20260506033032 | 66 | 113 | 2.0 | 4.0 | 0.00 | 0.15 | 0.15 | 47 | 1004.3 |
| 20260506032530 | 66 | 235 | 2.0 | 3.0 | 0.00 | 0.15 | 0.15 | 46 | 1004.1 |
| 20260506032026 | 67 | 96 | 3.0 | 5.0 | 0.00 | 0.15 | 0.15 | 45 | 1004.1 |
| 20260506031524 | 67 | 305 | 1.0 | 3.0 | 0.00 | 0.15 | 0.15 | 43 | 1004.0 |
| 20260506031021 | 66 | 112 | 3.0 | 4.0 | 0.00 | 0.15 | 0.15 | 42 | 1003.9 |
| 20260506030519 | 67 | 50 | 0.0 | 4.0 | 0.00 | 0.15 | 0.15 | 40 | 1004.1 |
| 20260506030016 | 67 | 110 | 2.0 | 3.0 | 0.00 | 0.15 | 0.15 | 39 | 1003.8 |
| 20260506025513 | 67 | 13 | 0.0 | 3.0 | 0.00 | 0.15 | 0.15 | 39 | 1003.8 |
| 20260506025009 | 68 | 123 | 2.0 | 5.0 | 0.00 | 0.15 | 0.15 | 39 | 1003.7 |
| 20260506024506 | 68 | 103 | 2.0 | 4.0 | 0.00 | 0.15 | 0.15 | 38 | 1003.7 |
| 20260506024001 | 68 | 115 | 2.0 | 6.0 | 0.00 | 0.15 | 0.15 | 37 | 1003.7 |
| 20260506023458 | 68 | 129 | 3.0 | 5.0 | 0.00 | 0.15 | 0.15 | 36 | 1003.5 |
| 20260506022955 | 69 | 99 | 3.0 | 7.0 | 0.00 | 0.15 | 0.15 | 36 | 1003.4 |
| 20260506022453 | 69 | 58 | 2.0 | 6.0 | 0.00 | 0.15 | 0.15 | 35 | 1003.4 |
| 20260506021951 | 69 | 87 | 4.0 | 6.0 | 0.00 | 0.15 | 0.15 | 34 | 1003.2 |
| 20260506021448 | 69 | 111 | 3.0 | 9.0 | 0.00 | 0.15 | 0.15 | 33 | 1002.8 |
| 20260506020945 | 69 | 128 | 4.0 | 12.0 | 0.00 | 0.15 | 0.15 | 34 | 1002.8 |
| 20260506020442 | 69 | 149 | 3.0 | 8.0 | 0.00 | 0.15 | 0.15 | 34 | 1002.7 |
| 20260506015939 | 69 | 106 | 3.0 | 7.0 | 0.00 | 0.15 | 0.15 | 33 | 1002.7 |
| 20260506015437 | 69 | 159 | 5.0 | 8.0 | 0.00 | 0.15 | 0.15 | 33 | 1002.7 |
| 20260506014934 | 70 | 98 | 5.0 | 8.0 | 0.00 | 0.15 | 0.15 | 33 | 1002.6 |
| 20260506014431 | 70 | 126 | 5.0 | 14.0 | 0.00 | 0.15 | 0.15 | 33 | 1002.7 |
| 20260506013927 | 70 | 144 | 3.0 | 12.0 | 0.00 | 0.15 | 0.15 | 33 | 1002.7 |
| 20260506013425 | 70 | 119 | 5.0 | 8.0 | 0.00 | 0.15 | 0.15 | 33 | 1002.4 |
| 20260506012921 | 70 | 88 | 4.0 | 11.0 | 0.00 | 0.15 | 0.15 | 33 | 1002.5 |
| 20260506012418 | 70 | 177 | 2.0 | 8.0 | 0.00 | 0.15 | 0.15 | 35 | 1002.6 |
| 20260506011915 | 70 | 143 | 4.0 | 11.0 | 0.00 | 0.15 | 0.15 | 35 | 1002.6 |
| 20260506011412 | 71 | 107 | 7.0 | 10.0 | 0.00 | 0.15 | 0.15 | 35 | 1002.4 |
| 20260506010909 | 71 | 100 | 6.0 | 9.0 | 0.00 | 0.15 | 0.15 | 35 | 1002.7 |
| 20260506010408 | 71 | 128 | 9.0 | 10.0 | 0.00 | 0.15 | 0.15 | 36 | 1002.3 |
| 20260506005904 | 71 | 121 | 6.0 | 9.0 | 0.00 | 0.15 | 0.15 | 36 | 1002.5 |
| 20260506005402 | 71 | 112 | 4.0 | 11.0 | 0.00 | 0.15 | 0.15 | 35 | 1002.2 |
| 20260506004856 | 71 | 138 | 3.0 | 6.0 | 0.00 | 0.15 | 0.15 | 35 | 1002.1 |
| 20260506004355 | 72 | 33 | 2.0 | 6.0 | 0.00 | 0.15 | 0.15 | 33 | 1002.3 |
| 20260506003851 | 72 | 0 | 1.0 | 5.0 | 0.00 | 0.15 | 0.15 | 34 | 1002.2 |
| 20260506003347 | 72 | 86 | 3.0 | 6.0 | 0.00 | 0.15 | 0.15 | 32 | 1002.3 |
| 20260506002843 | 73 | 137 | 5.0 | 5.0 | 0.00 | 0.15 | 0.15 | 31 | 1002.1 |
| 20260506002340 | 75 | 54 | 3.0 | 5.0 | 0.00 | 0.15 | 0.15 | 30 | 1002.3 |
| 20260506001835 | 74 | 61 | 2.0 | 6.0 | 0.00 | 0.15 | 0.15 | 31 | 1002.2 |
| 20260506001333 | 74 | 125 | 5.0 | 9.0 | 0.00 | 0.15 | 0.15 | 30 | 1001.9 |
| 20260506000829 | 75 | 4 | 5.0 | 8.0 | 0.00 | 0.15 | 0.15 | 30 | 1002.1 |
| 20260506000329 | 76 | 7 | 4.0 | 4.0 | 0.00 | 0.15 | 0.15 | 29 | 1001.7 |
| 20260505235824 | 75 | 107 | 6.0 | 6.0 | 0.00 | 0.15 | 0.15 | 30 | 1002.0 |
| 20260505235321 | 75 | 36 | 4.0 | 5.0 | 0.00 | 0.15 | 0.15 | 30 | 1001.7 |
| 20260505234818 | 76 | 67 | 0.0 | 5.0 | 0.00 | 0.15 | 0.15 | 30 | 1001.9 |
| 20260505234316 | 76 | 108 | 2.0 | 4.0 | 0.00 | 0.15 | 0.15 | 30 | 1001.7 |
| 20260505233813 | 75 | 137 | 2.0 | 3.0 | 0.00 | 0.15 | 0.15 | 29 | 1002.0 |
| 20260505233311 | 75 | 184 | 2.0 | 6.0 | 0.00 | 0.15 | 0.15 | 28 | 1001.7 |
| 20260505232808 | 77 | 190 | 0.0 | 6.0 | 0.00 | 0.15 | 0.15 | 27 | 1001.9 |
| 20260505232306 | 77 | 115 | 4.0 | 6.0 | 0.00 | 0.15 | 0.15 | 28 | 1002.0 |
| 20260505231802 | 78 | 224 | 2.0 | 5.0 | 0.00 | 0.15 | 0.15 | 28 | 1001.7 |
| 20260505231300 | 78 | 131 | 2.0 | 6.0 | 0.00 | 0.15 | 0.15 | 27 | 1001.9 |
| 20260505230758 | 76 | 9 | 2.0 | 5.0 | 0.00 | 0.15 | 0.15 | 28 | 1001.7 |
| 20260505230254 | 76 | 3 | 2.0 | 8.0 | 0.00 | 0.15 | 0.15 | 29 | 1001.7 |
| 20260505225751 | 77 | 132 | 3.0 | 5.0 | 0.00 | 0.15 | 0.15 | 27 | 1001.9 |
| 20260505225248 | 76 | 174 | 3.0 | 5.0 | 0.00 | 0.15 | 0.15 | 28 | 1002.1 |
| 20260505224743 | 78 | 140 | 5.0 | 9.0 | 0.00 | 0.15 | 0.15 | 26 | 1002.0 |
| 20260505224241 | 78 | 338 | 2.0 | 4.0 | 0.00 | 0.15 | 0.15 | 28 | 1001.9 |
| 20260505223738 | 78 | 135 | 5.0 | 9.0 | 0.00 | 0.15 | 0.15 | 27 | 1002.1 |
| 20260505223235 | 78 | 1 | 4.0 | 8.0 | 0.00 | 0.15 | 0.15 | 30 | 1002.0 |
| 20260505222731 | 76 | 346 | 3.0 | 6.0 | 0.00 | 0.15 | 0.15 | 31 | 1002.0 |
| 20260505222227 | 76 | 50 | 0.0 | 4.0 | 0.00 | 0.15 | 0.15 | 34 | 1002.4 |
| 20260505221724 | 76 | 51 | 2.0 | 6.0 | 0.00 | 0.15 | 0.15 | 33 | 1002.0 |
| 20260505221221 | 76 | 318 | 2.0 | 3.0 | 0.00 | 0.15 | 0.15 | 32 | 1002.3 |
| 20260505220718 | 75 | 6 | 6.0 | 8.0 | 0.00 | 0.15 | 0.15 | 33 | 1002.1 |
| 20260505220216 | 78 | 99 | 4.0 | 8.0 | 0.00 | 0.15 | 0.15 | 32 | 1002.1 |
| 20260505215713 | 77 | 153 | 1.0 | 6.0 | 0.00 | 0.15 | 0.15 | 34 | 1002.2 |
| 20260505215211 | 73 | 82 | 2.0 | 6.0 | 0.00 | 0.15 | 0.15 | 36 | 1002.4 |
| 20260505214708 | 74 | 6 | 2.0 | 12.0 | 0.00 | 0.15 | 0.15 | 36 | 1002.5 |
| 20260505214206 | 74 | 127 | 4.0 | 8.0 | 0.00 | 0.15 | 0.15 | 34 | 1002.6 |
| 20260505213703 | 75 | 296 | 2.0 | 9.0 | 0.00 | 0.15 | 0.15 | 34 | 1002.6 |
| 20260505213200 | 74 | 11 | 5.0 | 6.0 | 0.00 | 0.15 | 0.15 | 34 | 1002.8 |
| 20260505212656 | 75 | 72 | 4.0 | 9.0 | 0.00 | 0.15 | 0.15 | 34 | 1002.8 |
| 20260505212153 | 77 | 129 | 2.0 | 6.0 | 0.00 | 0.15 | 0.15 | 33 | 1003.0 |
| 20260505211650 | 75 | 6 | 7.0 | 16.0 | 0.00 | 0.15 | 0.15 | 33 | 1002.9 |
| 20260505211148 | 77 | 55 | 1.0 | 5.0 | 0.00 | 0.15 | 0.15 | 34 | 1002.8 |
| 20260505210644 | 75 | 0 | 9.0 | 10.0 | 0.00 | 0.15 | 0.15 | 33 | 1002.8 |
| 20260505210141 | 76 | 16 | 4.0 | 11.0 | 0.00 | 0.15 | 0.15 | 34 | 1002.9 |
| 20260505205638 | 76 | 32 | 4.0 | 11.0 | 0.00 | 0.15 | 0.15 | 33 | 1002.9 |
| 20260505205137 | 76 | 358 | 5.0 | 14.0 | 0.00 | 0.15 | 0.15 | 33 | 1003.0 |
| 20260505204633 | 77 | 9 | 9.0 | 13.0 | 0.00 | 0.15 | 0.15 | 32 | 1002.9 |
| 20260505204131 | 76 | 353 | 1.0 | 11.0 | 0.00 | 0.15 | 0.15 | 34 | 1003.2 |
| 20260505203628 | 76 | 1 | 8.0 | 11.0 | 0.00 | 0.15 | 0.15 | 32 | 1003.2 |
| 20260505203125 | 75 | 352 | 8.0 | 12.0 | 0.00 | 0.15 | 0.15 | 32 | 1003.1 |
| 20260505202620 | 75 | 343 | 4.0 | 12.0 | 0.00 | 0.15 | 0.15 | 33 | 1003.1 |
| 20260505202116 | 76 | 14 | 12.0 | 13.0 | 0.00 | 0.15 | 0.15 | 32 | 1003.0 |
| 20260505201613 | 76 | 6 | 6.0 | 15.0 | 0.00 | 0.15 | 0.15 | 33 | 1003.2 |
| 20260505201111 | 76 | 13 | 5.0 | 18.0 | 0.00 | 0.15 | 0.15 | 34 | 1003.1 |
| 20260505200609 | 76 | 2 | 8.0 | 9.0 | 0.00 | 0.15 | 0.15 | 36 | 1003.0 |
| 20260505200105 | 76 | 180 | 3.0 | 9.0 | 0.00 | 0.15 | 0.15 | 33 | 1003.4 |
| 20260505195601 | 77 | 27 | 4.0 | 8.0 | 0.00 | 0.15 | 0.15 | 33 | 1003.4 |
| 20260505195059 | 76 | 333 | 4.0 | 12.0 | 0.00 | 0.15 | 0.15 | 35 | 1003.4 |
| 20260505194556 | 75 | 2 | 2.0 | 7.0 | 0.00 | 0.15 | 0.15 | 38 | 1003.5 |
| 20260505194052 | 75 | 18 | 4.0 | 17.0 | 0.00 | 0.15 | 0.15 | 37 | 1003.5 |
| 20260505193549 | 75 | 86 | 2.0 | 8.0 | 0.00 | 0.15 | 0.15 | 40 | 1003.4 |
| 20260505193046 | 74 | 5 | 7.0 | 18.0 | 0.00 | 0.15 | 0.15 | 39 | 1003.6 |
| 20260505192545 | 75 | 42 | 5.0 | 13.0 | 0.00 | 0.15 | 0.15 | 40 | 1003.4 |
| 20260505192042 | 75 | 114 | 3.0 | 8.0 | 0.00 | 0.15 | 0.15 | 43 | 1003.4 |
| 20260505191540 | 74 | 353 | 3.0 | 11.0 | 0.00 | 0.15 | 0.15 | 45 | 1003.5 |
| 20260505191037 | 74 | 51 | 3.0 | 10.0 | 0.00 | 0.15 | 0.15 | 46 | 1003.6 |
| 20260505190532 | 75 | 253 | 3.0 | 6.0 | 0.00 | 0.15 | 0.15 | 46 | 1003.5 |
| 20260505190028 | 74 | 0 | 3.0 | 8.0 | 0.00 | 0.15 | 0.15 | 47 | 1003.5 |
| 20260505185525 | 74 | 125 | 2.0 | 7.0 | 0.00 | 0.15 | 0.15 | 48 | 1003.7 |
| 20260505185021 | 73 | 6 | 10.0 | 15.0 | 0.00 | 0.15 | 0.15 | 48 | 1003.8 |
| 20260505184518 | 73 | 11 | 8.0 | 12.0 | 0.00 | 0.15 | 0.15 | 49 | 1004.1 |
| 20260505184015 | 73 | 40 | 3.0 | 11.0 | 0.00 | 0.15 | 0.15 | 52 | 1003.9 |
| 20260505183512 | 73 | 2 | 1.0 | 4.0 | 0.00 | 0.15 | 0.15 | 54 | 1003.9 |
| 20260505183009 | 72 | 6 | 2.0 | 8.0 | 0.00 | 0.15 | 0.15 | 53 | 1004.3 |
| 20260505182506 | 72 | 72 | 2.0 | 4.0 | 0.00 | 0.15 | 0.15 | 53 | 1004.1 |
| 20260505182002 | 73 | 99 | 4.0 | 5.0 | 0.00 | 0.15 | 0.15 | 51 | 1004.3 |
| 20260505181459 | 71 | 191 | 0.0 | 3.0 | 0.00 | 0.15 | 0.15 | 52 | 1004.0 |
| 20260505180956 | 73 | 331 | 3.0 | 18.0 | 0.00 | 0.15 | 0.15 | 54 | 1004.3 |
| 20260505180452 | 71 | 20 | 3.0 | 6.0 | 0.00 | 0.15 | 0.15 | 55 | 1004.3 |
| 20260505175949 | 70 | 32 | 2.0 | 4.0 | 0.00 | 0.15 | 0.15 | 56 | 1004.4 |
| 20260505175445 | 70 | 244 | 2.0 | 4.0 | 0.00 | 0.15 | 0.15 | 53 | 1004.8 |
| 20260505174942 | 68 | 99 | 3.0 | 4.0 | 0.00 | 0.15 | 0.15 | 61 | 1004.6 |
| 20260505174439 | 68 | 54 | 3.0 | 5.0 | 0.00 | 0.15 | 0.15 | 64 | 1004.4 |
| 20260505173935 | 68 | 148 | 3.0 | 4.0 | 0.00 | 0.15 | 0.15 | 60 | 1004.7 |
| 20260505173431 | 69 | 122 | 0.0 | 4.0 | 0.00 | 0.15 | 0.15 | 60 | 1004.7 |
| 20260505172929 | 67 | 29 | 4.0 | 4.0 | 0.00 | 0.15 | 0.15 | 62 | 1004.7 |
| 20260505172427 | 66 | 138 | 2.0 | 2.0 | 0.00 | 0.15 | 0.15 | 65 | 1004.8 |
| 20260505171926 | 66 | 121 | 4.0 | 4.0 | 0.00 | 0.15 | 0.15 | 65 | 1005.0 |
| 20260505171423 | 66 | 75 | 2.0 | 4.0 | 0.00 | 0.15 | 0.15 | 67 | 1004.6 |
| 20260505170920 | 66 | 119 | 2.0 | 4.0 | 0.00 | 0.15 | 0.15 | 65 | 1004.8 |
| 20260505170417 | 67 | 222 | 2.0 | 4.0 | 0.00 | 0.15 | 0.15 | 65 | 1004.8 |
| 20260505165912 | 66 | 20 | 2.0 | 3.0 | 0.00 | 0.15 | 0.15 | 64 | 1004.6 |
| 20260505165408 | 66 | 214 | 2.0 | 4.0 | 0.00 | 0.15 | 0.15 | 66 | 1004.8 |
| 20260505164904 | 66 | 147 | 0.0 | 2.0 | 0.00 | 0.15 | 0.15 | 65 | 1004.6 |
| 20260505164401 | 65 | 214 | 1.0 | 2.0 | 0.00 | 0.15 | 0.15 | 67 | 1004.7 |
| 20260505163859 | 65 | 108 | 2.0 | 2.0 | 0.00 | 0.15 | 0.15 | 66 | 1004.7 |
| 20260505163358 | 65 | 151 | 1.0 | 2.0 | 0.00 | 0.15 | 0.15 | 66 | 1004.6 |
| 20260505162856 | 65 | 106 | 0.0 | 3.0 | 0.00 | 0.15 | 0.15 | 68 | 1004.5 |
| 20260505162351 | 64 | 268 | 0.0 | 4.0 | 0.00 | 0.15 | 0.15 | 74 | 1004.7 |
| 20260505161848 | 64 | 166 | 1.0 | 2.0 | 0.00 | 0.15 | 0.15 | 76 | 1004.8 |
| 20260505161345 | 64 | 314 | 1.0 | 3.0 | 0.00 | 0.15 | 0.15 | 76 | 1004.8 |
| 20260505160843 | 63 | 100 | 1.0 | 3.0 | 0.00 | 0.15 | 0.15 | 75 | 1004.6 |
| 20260505160341 | 63 | 120 | 2.0 | 3.0 | 0.00 | 0.15 | 0.15 | 75 | 1005.1 |
| 20260505153320 | 64 | 130 | 2.0 | 4.0 | 0.00 | 0.15 | 0.15 | 79 | 1004.6 |
| 20260505152817 | 64 | 119 | 2.0 | 4.0 | 0.00 | 0.15 | 0.15 | 79 | 1004.8 |
| 20260505152314 | 63 | 124 | 2.0 | 4.0 | 0.00 | 0.15 | 0.15 | 79 | 1004.6 |
| 20260505151813 | 63 | 125 | 3.0 | 4.0 | 0.00 | 0.15 | 0.15 | 80 | 1004.4 |
| 20260505151311 | 63 | 125 | 2.0 | 3.0 | 0.00 | 0.15 | 0.15 | 83 | 1004.5 |
| 20260505150808 | 63 | 97 | 3.0 | 3.0 | 0.00 | 0.15 | 0.15 | 85 | 1004.6 |
| 20260505150305 | 62 | 52 | 1.0 | 2.0 | 0.00 | 0.15 | 0.15 | 85 | 1004.3 |
| 20260505140235 | 59 | 110 | 0.0 | 2.0 | 0.00 | 0.15 | 0.15 | 97 | 1004.2 |
| 20260505130158 | 58 | 356 | 1.0 | 2.0 | 0.00 | 0.15 | 0.15 | 98 | 1003.9 |
| 20260505124648 | 58 | 37 | 0.0 | 2.0 | 0.00 | 0.14 | 0.14 | 98 | 1003.5 |
| 20260505124145 | 58 | 69 | 1.0 | 2.0 | 0.00 | 0.14 | 0.14 | 98 | 1003.5 |
| 20260505123641 | 58 | 195 | 0.0 | 2.0 | 0.00 | 0.14 | 0.14 | 98 | 1003.2 |
| 20260505123138 | 58 | 131 | 0.0 | 2.0 | 0.00 | 0.14 | 0.14 | 98 | 1003.4 |
| 20260505122634 | 58 | 172 | 2.0 | 2.0 | 0.00 | 0.14 | 0.14 | 98 | 1003.4 |
| 20260505122132 | 58 | 180 | 0.0 | 2.0 | 0.00 | 0.14 | 0.14 | 98 | 1003.2 |
| 20260505121628 | 58 | 134 | 1.0 | 2.0 | 0.00 | 0.14 | 0.14 | 98 | 1003.5 |
| 20260505121125 | 58 | 161 | 1.0 | 2.0 | 0.00 | 0.14 | 0.14 | 98 | 1003.5 |
| 20260505120621 | 58 | 50 | 0.0 | 2.0 | 0.00 | 0.14 | 0.14 | 98 | 1003.4 |
| 20260505120118 | 58 | 280 | 2.0 | 3.0 | 0.00 | 0.14 | 0.14 | 98 | 1003.4 |
| 20260505115618 | 58 | 330 | 2.0 | 2.0 | 0.00 | 0.14 | 0.14 | 98 | 1003.0 |
| 20260505115115 | 58 | 346 | 2.0 | 3.0 | 0.00 | 0.14 | 0.14 | 98 | 1003.2 |
| 20260505114612 | 58 | 28 | 0.0 | 2.0 | 0.02 | 0.14 | 0.14 | 98 | 1003.1 |
| 20260505114109 | 58 | 304 | 0.0 | 3.0 | 0.00 | 0.14 | 0.14 | 98 | 1002.9 |
| 20260505113605 | 58 | 60 | 0.0 | 4.0 | 0.00 | 0.14 | 0.14 | 98 | 1002.9 |
| 20260505113101 | 58 | 298 | 1.0 | 4.0 | 0.00 | 0.14 | 0.14 | 98 | 1003.0 |
| 20260505112558 | 58 | 303 | 3.0 | 4.0 | 0.00 | 0.14 | 0.14 | 98 | 1003.2 |
| 20260505112056 | 58 | 346 | 3.0 | 4.0 | 0.02 | 0.14 | 0.14 | 98 | 1003.7 |
| 20260505111550 | 58 | 0 | 0.0 | 2.0 | 0.02 | 0.14 | 0.14 | 98 | 1003.4 |
| 20260505111046 | 58 | 16 | 2.0 | 4.0 | 0.00 | 0.13 | 0.13 | 98 | 1003.7 |
| 20260505110543 | 58 | 326 | 0.0 | 3.0 | 0.00 | 0.13 | 0.13 | 98 | 1003.5 |
| 20260505102015 | 58 | 302 | 2.0 | 3.0 | 0.02 | 0.13 | 0.13 | 98 | 1003.9 |
| 20260505101513 | 58 | 274 | 2.0 | 4.0 | 0.00 | 0.13 | 0.13 | 98 | 1004.0 |
| 20260505101009 | 58 | 59 | 1.0 | 4.0 | 0.00 | 0.13 | 0.13 | 98 | 1004.4 |
| 20260505100507 | 58 | 287 | 2.0 | 3.0 | 0.00 | 0.13 | 0.13 | 98 | 1004.6 |
| 20260505100003 | 58 | 14 | 2.0 | 5.0 | 0.00 | 0.13 | 0.13 | 98 | 1004.5 |
| 20260505095459 | 58 | 12 | 3.0 | 5.0 | 0.00 | 0.13 | 0.13 | 98 | 1004.4 |
| 20260505094955 | 58 | 10 | 1.0 | 4.0 | 0.00 | 0.13 | 0.13 | 98 | 1004.5 |
| 20260505094453 | 58 | 300 | 1.0 | 4.0 | 0.00 | 0.13 | 0.13 | 98 | 1004.4 |
| 20260505093949 | 58 | 284 | 2.0 | 4.0 | 0.02 | 0.13 | 0.13 | 98 | 1004.5 |
| 20260505093446 | 58 | 301 | 4.0 | 7.0 | 0.07 | 0.13 | 0.13 | 97 | 1004.6 |
| 20260505092943 | 58 | 330 | 2.0 | 4.0 | 0.07 | 0.12 | 0.12 | 97 | 1004.7 |
| 20260505092440 | 58 | 232 | 0.0 | 3.0 | 0.09 | 0.12 | 0.12 | 97 | 1004.8 |
| 20260505091938 | 58 | 310 | 3.0 | 5.0 | 0.05 | 0.11 | 0.11 | 97 | 1005.0 |
| 20260505091435 | 58 | 5 | 3.0 | 4.0 | 0.02 | 0.10 | 0.10 | 97 | 1004.7 |
| 20260505090933 | 58 | 296 | 6.0 | 6.0 | 0.02 | 0.10 | 0.10 | 97 | 1004.8 |
| 20260505090431 | 58 | 337 | 5.0 | 8.0 | 0.02 | 0.10 | 0.10 | 97 | 1005.0 |
| 20260505085928 | 58 | 299 | 3.0 | 6.0 | 0.02 | 0.10 | 0.10 | 97 | 1004.8 |
| 20260505085426 | 58 | 291 | 5.0 | 6.0 | 0.02 | 0.09 | 0.09 | 97 | 1004.8 |
| 20260505084924 | 58 | 350 | 1.0 | 6.0 | 0.00 | 0.09 | 0.09 | 97 | 1005.2 |
| 20260505084422 | 58 | 301 | 5.0 | 6.0 | 0.00 | 0.09 | 0.09 | 97 | 1005.2 |
| 20260505083920 | 58 | 354 | 4.0 | 4.0 | 0.02 | 0.09 | 0.09 | 97 | 1005.4 |
| 20260505083417 | 58 | 344 | 2.0 | 4.0 | 0.02 | 0.09 | 0.09 | 97 | 1005.4 |
| 20260505082913 | 58 | 346 | 2.0 | 8.0 | 0.05 | 0.09 | 0.09 | 97 | 1005.7 |
| 20260505082409 | 58 | 350 | 3.0 | 4.0 | 0.05 | 0.09 | 0.09 | 97 | 1005.9 |
| 20260505081906 | 58 | 318 | 4.0 | 6.0 | 0.02 | 0.08 | 0.08 | 97 | 1006.2 |
| 20260505081403 | 58 | 322 | 0.0 | 4.0 | 0.05 | 0.08 | 0.08 | 97 | 1006.5 |
| 20260505080859 | 58 | 359 | 0.0 | 4.0 | 0.05 | 0.07 | 0.07 | 97 | 1006.8 |
| 20260505080355 | 59 | 357 | 2.0 | 4.0 | 0.05 | 0.07 | 0.07 | 97 | 1006.6 |
| 20260505075851 | 59 | 25 | 1.0 | 3.0 | 0.05 | 0.07 | 0.07 | 97 | 1006.6 |
| 20260505075348 | 59 | 352 | 1.0 | 3.0 | 0.07 | 0.06 | 0.06 | 97 | 1006.8 |
| 20260505074845 | 59 | 306 | 2.0 | 3.0 | 0.09 | 0.06 | 0.06 | 97 | 1007.1 |
| 20260505074342 | 59 | 0 | 2.0 | 3.0 | 0.09 | 0.05 | 0.05 | 97 | 1007.0 |
| 20260505073840 | 59 | 7 | 1.0 | 3.0 | 0.07 | 0.04 | 0.04 | 96 | 1006.9 |
| 20260505073337 | 59 | 29 | 2.0 | 2.0 | 0.09 | 0.04 | 0.04 | 96 | 1007.0 |
| 20260505072834 | 59 | 6 | 0.0 | 2.0 | 0.09 | 0.03 | 0.03 | 96 | 1007.1 |
| 20260505072330 | 59 | 333 | 0.0 | 1.0 | 0.05 | 0.02 | 0.02 | 96 | 1007.2 |
| 20260505071826 | 58 | 20 | 0.0 | 3.0 | 0.05 | 0.01 | 0.01 | 96 | 1007.1 |
| 20260505071323 | 59 | 300 | 3.0 | 3.0 | 0.02 | 0.01 | 0.01 | 96 | 1006.9 |
| 20260505070821 | 59 | 358 | 3.0 | 3.0 | 0.02 | 0.00 | 0.00 | 96 | 1007.0 |
| 20260505070318 | 59 | 28 | 0.0 | 4.0 | 0.05 | 0.00 | 0.00 | 95 | 1006.9 |
| 20260505065813 | 59 | 1 | 0.0 | 2.0 | 0.05 | 0.18 | 0.18 | 95 | 1006.8 |
| 20260505065310 | 59 | 0 | 0.0 | 2.0 | 0.05 | 0.18 | 0.18 | 95 | 1006.8 |
| 20260505064807 | 59 | 25 | 0.0 | 2.0 | 0.07 | 0.18 | 0.18 | 95 | 1006.8 |
| 20260505064304 | 59 | 7 | 2.0 | 3.0 | 0.05 | 0.17 | 0.17 | 95 | 1006.8 |
| 20260505063802 | 59 | 22 | 3.0 | 3.0 | 0.05 | 0.17 | 0.17 | 94 | 1006.9 |
| 20260505063258 | 59 | 345 | 2.0 | 3.0 | 0.07 | 0.16 | 0.16 | 94 | 1006.7 |
| 20260505062754 | 59 | 10 | 2.0 | 4.0 | 0.05 | 0.15 | 0.15 | 94 | 1006.7 |
| 20260505062252 | 59 | 276 | 2.0 | 3.0 | 0.07 | 0.15 | 0.15 | 93 | 1006.8 |
| 20260505061748 | 59 | 292 | 1.0 | 3.0 | 0.07 | 0.15 | 0.15 | 93 | 1007.0 |
| 20260505061246 | 59 | 262 | 2.0 | 4.0 | 0.05 | 0.14 | 0.14 | 92 | 1006.9 |
| 20260505060744 | 59 | 239 | 2.0 | 2.0 | 0.02 | 0.13 | 0.13 | 92 | 1006.8 |
| 20260505060241 | 59 | 228 | 2.0 | 3.0 | 0.02 | 0.13 | 0.13 | 92 | 1006.8 |
| 20260505055736 | 59 | 322 | 0.0 | 3.0 | 0.02 | 0.13 | 0.13 | 92 | 1006.2 |
| 20260505055232 | 59 | 271 | 2.0 | 4.0 | 0.02 | 0.13 | 0.13 | 91 | 1006.6 |
| 20260505054730 | 60 | 49 | 2.0 | 2.0 | 0.05 | 0.13 | 0.13 | 90 | 1006.3 |
| 20260505054228 | 60 | 133 | 3.0 | 4.0 | 0.07 | 0.12 | 0.12 | 88 | 1006.2 |
| 20260505053726 | 60 | 0 | 2.0 | 3.0 | 0.07 | 0.12 | 0.12 | 88 | 1006.2 |
| 20260505053222 | 60 | 103 | 1.0 | 3.0 | 0.05 | 0.11 | 0.11 | 89 | 1006.3 |
| 20260505052719 | 59 | 7 | 3.0 | 5.0 | 0.05 | 0.10 | 0.10 | 91 | 1006.5 |
| 20260505052216 | 59 | 19 | 2.0 | 5.0 | 0.07 | 0.10 | 0.10 | 92 | 1006.3 |
| 20260505051713 | 58 | 347 | 2.0 | 5.0 | 0.05 | 0.09 | 0.09 | 92 | 1006.6 |
| 20260505051211 | 58 | 2 | 2.0 | 4.0 | 0.02 | 0.09 | 0.09 | 92 | 1006.3 |
| 20260505050709 | 58 | 318 | 2.0 | 4.0 | 0.00 | 0.09 | 0.09 | 91 | 1006.1 |
| 20260505050207 | 58 | 357 | 3.0 | 3.0 | 0.02 | 0.09 | 0.09 | 91 | 1006.6 |
| 20260505041642 | 58 | 33 | 2.0 | 3.0 | 0.02 | 0.06 | 0.06 | 87 | 1006.5 |
| 20260505041139 | 59 | 348 | 0.0 | 3.0 | 0.05 | 0.06 | 0.06 | 85 | 1006.9 |
| 20260505040636 | 59 | 7 | 0.0 | 3.0 | 0.02 | 0.05 | 0.05 | 83 | 1006.9 |
| 20260505040133 | 59 | 151 | 0.0 | 2.0 | 0.02 | 0.05 | 0.05 | 80 | 1007.1 |
| 20260505035630 | 59 | 133 | 0.0 | 1.0 | 0.02 | 0.05 | 0.05 | 78 | 1007.0 |
| 20260505035126 | 59 | 127 | 0.0 | 2.0 | 0.00 | 0.04 | 0.04 | 77 | 1006.9 |
| 20260505034623 | 60 | 36 | 3.0 | 3.0 | 0.00 | 0.04 | 0.04 | 76 | 1006.8 |
| 20260505034120 | 60 | 355 | 3.0 | 5.0 | 0.00 | 0.04 | 0.04 | 74 | 1006.6 |